STARLINK-35822

Last updated on Sun Dec 07 2025 00:02:05 GMT+0000 (Coordinated Universal Time)

1 66362U 25254Q 25340.58335648 -.00130471 00000+0 -23727-2 0 9997 2 66362 53.1601 305.9783 0001036 76.5738 2.4758 15.49362485 5932
UTC large
Height (km)
Speed (km/s)
/
Latitude / Longitude
Inclination (degrees)
Orbital Period (minutes)
Azimuth
Elevation
Range (km)
Doppler Factor

Next 0 passes for location: London (51.5072 / 0.1276)

Sorry there are no passes over London.